PRDIE SBVC-SBBR

Flight info

Callsign PRDIE
Flight time N/A
Altitude 24000
Route ANKOL DCT OROPA DCT DALMU
Aircraft C90/L-SBGRW/S

Departure

Time 2026-05-07 23:22
Airport Glauber de Andrade Rocha Airport (SBVC)

Arrival

Time N/A
Airport Presidente Juscelino Kubitschek International Airport (SBBR)
Time Latitude Longitude Altitude Speed Heading
2026-05-07 23:15 -14.90971 -40.91719 2930 ft 0 kts 215°
2026-05-07 23:18 -14.90971 -40.91723 2930 ft 3 kts 294°
2026-05-07 23:18 -14.90953 -40.91715 2930 ft 1 kts 37°
2026-05-07 23:18 -14.90952 -40.91714 2930 ft 0 kts 33°
2026-05-07 23:19 -14.90929 -40.91709 2930 ft 6 kts 323°
2026-05-07 23:19 -14.90889 -40.91735 2930 ft 6 kts 349°
2026-05-07 23:19 -14.90864 -40.91729 2930 ft 1 kts 25°
2026-05-07 23:19 -14.90844 -40.91717 2930 ft 10 kts 34°
2026-05-07 23:20 -14.90770 -40.91662 2930 ft 13 kts 34°
2026-05-07 23:20 -14.90705 -40.91631 2930 ft 8 kts 346°
2026-05-07 23:20 -14.90667 -40.91653 2930 ft 5 kts 312°
2026-05-07 23:20 -14.90601 -40.91748 2930 ft 29 kts 306°
2026-05-07 23:21 -14.90531 -40.91806 2930 ft 6 kts 200°
2026-05-07 23:21 -14.90556 -40.91802 2930 ft 0 kts 128°
2026-05-07 23:22 -14.90732 -40.91549 2929 ft 91 kts 127°
2026-05-07 23:22 -14.91274 -40.90966 3132 ft 127 kts 139°
2026-05-07 23:22 -14.92241 -40.90762 3582 ft 160 kts 184°
2026-05-07 23:22 -14.93183 -40.91376 4071 ft 169 kts 226°
2026-05-07 23:23 -14.93554 -40.92547 4343 ft 178 kts 269°
2026-05-07 23:23 -14.93859 -40.93755 4630 ft 175 kts 233°
2026-05-07 23:23 -14.94053 -40.95022 4769 ft 190 kts 284°
2026-05-07 23:23 -14.93488 -40.96318 4873 ft 202 kts 300°
2026-05-07 23:24 -14.92738 -40.97490 5161 ft 192 kts 305°
2026-05-07 23:24 -14.92005 -40.98667 5242 ft 194 kts 302°